Flag for U.S.A. Weather past 2 weeks in Milwaukee, Wisconsin, U.S.A.

Now
46 °F

Sunny.


Feels Like: 43 °F
Forecast: 41 / 54 °F
Wind: 7 mph from Northeast

Location: Milwaukee / Timmerman

Current Time: Oct 21, 2014 at 7:34:10 PM

Latest Report: Oct 21, 2014 at 5:45 PM


Visibility: 10 mi

Pressure: 30.24 "Hg

Humidity: 71%

Dew point: 37 °F

Location of MilwaukeeLocation

Historic Weather in Milwaukee — Graph

°F

Milwaukee temperature yesterday

Maximum temperature yesterday: 55 °F (at 2:45 PM)
Minimum temperature yesterday: 45 °F (at 3:35 AM)
Average temperature yesterday: 48 °F

Past Weeks' High & Low Weather Summary

 TemperatureHumidityPressure
High64 °F (Oct 8, 3:45 PM)100% (Oct 11, 6:35 AM)30.26 "Hg (Oct 11, 6:35 AM)
Low32 °F (Oct 11, 6:15 AM)26% (Oct 9, 4:45 PM)29.50 "Hg (Oct 14, 1:55 AM)
Average47 °F77%29.90 "Hg
* Reported Oct 6 5:45 PM — Oct 21 5:45 PM, Milwaukee, Weather by CustomWeather, © 2014

Note: Actual official high and low records may vary slightly from our data, if they occured in-between our weather recording intervals... More about our weather records

Advertising

Milwaukee weather history for previous 24 hours

 ConditionsComfort  
Time TempWeatherWind HumidityBarometerVisibility
5:45 PM
Oct 21
46 °FSunny.7 mph71%30.24 "Hg10 mi
4:45 PM48 °FSunny.9 mph62%30.23 "Hg10 mi
3:45 PM48 °FScattered clouds.8 mph62%30.22 "Hg10 mi
2:45 PM48 °FOvercast.10 mph62%30.22 "Hg10 mi
1:45 PM48 °FOvercast.12 mph62%30.22 "Hg10 mi
12:45 PM48 °FOvercast.16 mph66%30.22 "Hg10 mi
11:45 AM46 °FMore clouds than sun.17 mph71%30.22 "Hg10 mi
10:45 AM46 °FMostly cloudy.14 mph71%30.21 "Hg10 mi
9:45 AM46 °FMostly cloudy.12 mph71%30.19 "Hg10 mi
8:45 AM45 °FOvercast.7 mph76%30.17 "Hg10 mi
7:45 AM45 °FMostly cloudy.9 mph76%30.15 "Hg10 mi
6:45 AM45 °FOvercast.10 mph76%30.11 "Hg10 mi
6:35 AM43 °FMostly cloudy.10 mph76%30.12 "Hg10 mi
6:15 AM43 °FOvercast.9 mph76%30.11 "Hg10 mi
5:55 AM43 °FOvercast.8 mph76%30.11 "Hg10 mi
5:35 AM45 °FOvercast.8 mph71%30.10 "Hg10 mi
5:15 AM45 °FOvercast.8 mph71%30.09 "Hg10 mi
4:55 AM45 °FOvercast.9 mph71%30.08 "Hg10 mi
4:15 AM45 °FOvercast.8 mph76%30.07 "Hg10 mi
3:55 AM45 °FOvercast.9 mph76%30.06 "Hg10 mi
3:35 AM45 °FOvercast.8 mph76%30.06 "Hg10 mi
3:15 AM45 °FOvercast.6 mph76%30.06 "Hg10 mi
2:55 AM45 °FOvercast.6 mph76%30.06 "Hg10 mi
2:35 AM45 °FOvercast.8 mph76%30.05 "Hg10 mi
2:15 AM45 °FOvercast.9 mph76%30.05 "Hg10 mi
1:55 AM46 °FOvercast.7 mph71%30.04 "Hg10 mi
1:15 AM46 °FOvercast.7 mph76%30.03 "Hg10 mi
12:55 AM46 °FOvercast.8 mph76%30.03 "Hg10 mi
12:15 AM46 °FOvercast.7 mph76%30.02 "Hg10 mi
11:55 PM
Oct 20
46 °FOvercast.8 mph82%30.02 "Hg10 mi
11:15 PM46 °FDrizzle. Overcast.8 mph87%30.03 "Hg10 mi
10:55 PM50 °FOvercast.14 mph71%30.02 "Hg10 mi
10:15 PM50 °FMostly cloudy.5 mph71%30.02 "Hg10 mi
9:55 PM50 °FMostly cloudy.3 mph71%30.01 "Hg10 mi
9:35 PM50 °FMostly cloudy.5 mph71%30.01 "Hg10 mi
9:15 PM50 °FMostly cloudy.6 mph71%30.01 "Hg10 mi
8:45 PM52 °FOvercast.8 mph67%30.01 "Hg10 mi
7:45 PM52 °FMostly cloudy.8 mph67%29.99 "Hg10 mi
Weather by CustomWeather, © 2014

See weather overviewHow to use our weather pages